Wind_Speed
26 26 25 25 24 23 23 23 22 21 21 21 20 20 20 20 20 20 19 18 18 18 18 17 16 15 14 14 15 15 14 14 13 12 13 13 13 12 11 11 10 9
27 26 25 24 24 24 24 23 22 22 22 22 21 20 19 19 19 20 20 19 19 19 19 18 18 17 16 15 15 16 15 14 13 13 14 14 14 13 12 12 11 11
28 27 27 26 25 25 24 23 22 22 22 22 22 21 20 19 19 20 21 20 19 19 19 19 19 18 17 16 16 16 16 15 15 14 14 15 15 14 13 13 12 12
30 29 28 28 26 25 24 23 23 23 23 22 22 22 21 19 19 20 21 21 20 19 19 20 20 19 18 17 17 17 16 16 16 15 15 16 15 15 14 13 13 12
31 31 30 28 27 25 24 24 25 24 24 24 23 22 22 21 20 20 20 21 21 20 20 20 20 20 19 18 18 17 17 17 16 16 17 16 16 16 15 14 14 14
31 32 31 30 28 27 26 26 27 25 24 24 23 22 22 22 22 22 21 21 21 21 21 21 21 21 20 19 19 18 18 18 17 17 18 17 17 16 16 15 16 16
32 32 32 31 29 28 28 27 27 26 25 24 23 23 23 23 23 23 23 22 22 21 21 21 22 21 21 20 20 20 19 18 18 18 18 18 18 17 17 17 17 17
33 32 32 31 30 29 29 28 27 27 26 24 23 23 24 24 24 23 24 24 23 22 22 22 22 22 21 21 21 21 20 19 19 19 19 19 19 19 19 18 18 19
32 32 31 31 31 30 30 29 28 27 26 26 25 25 24 24 25 24 23 24 24 23 22 23 23 23 22 22 22 22 22 20 20 21 21 21 21 21 21 20 19 20
32 32 31 31 31 31 31 30 29 27 27 27 28 26 25 25 25 25 23 24 24 23 23 23 23 23 22 22 23 23 23 22 22 22 21 21 21 21 22 22 21 20
33 33 32 32 32 31 31 31 30 28 27 28 29 28 27 25 25 25 25 24 24 24 25 24 24 24 23 23 23 23 23 23 23 23 22 22 22 22 22 22 22 21
34 34 33 34 34 33 32 31 31 30 28 28 29 29 28 27 26 26 26 26 26 25 26 26 25 25 25 25 24 23 24 23 23 23 23 23 24 23 23 23 22 22
35 35 35 34 34 34 32 31 31 31 31 30 29 29 29 29 28 27 27 27 27 26 26 26 26 26 26 26 25 24 24 23 23 23 24 24 25 24 23 23 23 23
35 35 35 35 34 33 32 32 32 32 32 31 29 29 29 29 29 28 26 26 26 27 27 27 26 26 26 26 26 25 24 24 23 24 24 24 25 25 24 24 24 24
33 33 33 33 32 31 32 33 32 31 31 31 30 29 28 28 28 28 26 25 26 27 27 27 27 27 27 28 28 26 25 24 24 24 25 24 24 25 25 25 25 24
32 32 31 32 32 32 32 33 32 31 30 30 30 29 27 27 27 28 27 26 26 27 27 28 27 28 30 32 31 28 26 24 24 25 25 25 25 24 24 25 25 25
31 31 31 31 32 32 31 31 32 31 30 30 30 29 28 27 26 27 28 27 26 27 28 28 28 30 33 36 36 33 28 25 24 25 26 26 26 25 25 25 25 25
30 30 30 30 31 31 31 30 31 31 30 29 29 29 28 27 27 28 29 28 27 27 28 28 28 31 36 37 38 38 35 28 24 24 25 26 27 26 26 25 24 25
29 29 29 30 31 31 30 29 29 30 30 29 28 28 28 28 28 28 28 29 29 28 28 28 27 30 36 39 39 40 40 35 27 24 25 26 26 27 26 25 25 25
28 28 29 30 29 29 28 28 29 30 30 29 28 28 28 28 29 29 29 29 29 29 28 27 27 29 34 38 39 40 41 40 33 26 25 26 26 26 26 26 26 26
28 28 28 27 26 26 27 28 29 29 29 29 28 27 28 28 28 29 30 29 29 28 27 27 28 30 33 36 38 39 40 41 37 30 27 26 25 26 26 26 27 28
29 28 26 25 24 25 26 28 29 29 28 28 27 26 27 26 27 29 29 28 28 28 28 28 28 31 34 35 37 38 39 41 39 32 28 27 26 26 27 28 30 30
28 27 25 25 25 26 27 28 29 28 27 27 27 27 27 27 27 27 27 28 28 28 29 29 28 31 34 36 37 38 39 42 39 33 30 31 30 29 28 29 32 33
25 26 25 26 26 27 28 29 29 28 27 26 27 27 28 27 26 25 25 27 29 30 30 29 28 30 33 36 38 38 41 42 38 33 32 33 33 32 31 31 32 33
25 26 26 27 27 28 28 28 27 26 24 24 25 25 26 25 25 24 24 26 27 29 30 30 29 29 33 36 37 38 42 42 35 31 32 32 32 33 33 33 32 32
25 26 27 28 28 27 26 25 23 23 23 23 23 23 23 23 24 24 24 24 25 26 28 30 30 30 33 36 36 38 42 41 36 33 34 33 31 32 33 33 33 31
Wind_Direction
208 209 210 211 213 214 213 212 212 211 211 212 214 217 217 218 217 214 213 212 211 211 211 210 209 212 221 226 225 222 222 224 219 213 213 212 209 208 210 212 213 215
208 209 210 211 213 214 213 213 212 212 212 212 214 216 216 216 214 213 212 210 210 210 209 210 209 208 214 221 224 223 221 222 221 215 213 213 211 208 208 211 212 211
206 207 210 211 213 213 214 213 213 214 215 214 214 215 215 214 212 211 211 210 211 210 209 209 208 207 210 215 220 223 222 220 220 217 215 215 213 210 207 209 212 209
205 207 210 212 214 214 213 213 213 215 216 216 215 215 215 213 210 209 210 211 211 210 208 208 209 207 209 211 214 220 224 222 221 217 216 217 214 211 207 206 208 207
205 207 209 212 213 212 211 213 215 215 215 216 216 214 213 212 210 209 210 211 211 211 209 209 209 208 207 207 209 215 220 221 219 216 216 217 215 212 208 204 204 204
203 206 208 210 211 211 211 213 215 215 215 216 215 214 213 212 211 210 210 211 212 212 211 210 209 208 207 206 207 209 214 217 215 211 214 218 216 214 209 202 202 205
203 206 208 209 210 210 211 214 215 215 216 216 214 213 213 212 212 211 210 211 212 213 211 210 210 209 207 205 205 206 207 211 212 207 211 217 215 214 212 204 201 205
203 205 206 208 208 210 211 213 214 215 215 214 213 213 213 213 213 212 211 210 211 212 210 210 210 209 207 204 204 204 202 204 208 206 209 216 215 215 214 207 203 206
202 203 204 205 207 209 211 212 213 213 213 213 213 215 214 214 214 213 211 210 210 210 209 209 209 209 208 206 204 204 201 200 202 204 208 214 215 215 214 210 206 207
201 202 204 205 207 209 210 212 213 213 212 213 215 216 215 214 215 214 211 209 209 209 208 208 209 209 209 208 206 205 204 202 199 199 203 209 213 213 212 210 208 208
201 202 205 206 208 210 211 212 213 213 213 213 215 216 215 214 214 214 211 208 208 208 209 209 208 208 208 209 209 207 206 204 201 199 200 205 210 211 210 210 210 211
200 202 205 206 208 211 212 212 213 213 213 213 214 215 214 214 214 213 211 210 209 208 209 210 210 208 209 210 210 209 208 206 204 202 203 206 210 212 212 211 212 214
200 202 204 206 208 210 211 212 213 213 213 213 214 214 214 214 213 212 211 210 210 210 210 211 210 210 210 210 211 210 208 207 205 203 204 209 213 215 214 213 214 216
200 202 203 205 206 207 208 210 212 213 213 213 213 213 214 214 213 212 211 209 210 211 211 211 211 210 210 210 211 211 209 208 206 204 205 210 214 217 215 215 216 217
198 200 202 204 204 205 206 209 211 212 212 213 213 214 215 215 214 213 210 208 209 210 211 212 212 211 211 211 211 210 208 208 207 206 208 211 214 217 216 216 216 218
194 198 200 201 202 203 205 207 209 210 211 212 212 213 214 214 213 213 212 210 209 209 210 211 212 213 216 217 215 210 207 207 208 207 210 213 214 215 216 216 216 218
193 196 198 199 201 202 203 205 207 209 210 211 211 212 213 213 212 213 214 213 212 211 211 212 213 216 221 222 220 216 210 206 208 209 210 213 215 216 217 217 215 216
194 196 197 198 199 201 202 203 205 207 208 209 210 211 212 213 213 213 215 215 215 214 214 214 216 220 224 225 223 221 216 210 209 210 211 214 217 217 218 218 214 213
196 196 197 198 199 200 200 201 203 206 208 209 210 211 212 213 214 215 215 216 216 217 217 218 218 222 226 227 224 223 221 216 212 212 212 215 218 219 219 218 213 211
199 200 200 200 199 198 199 202 205 207 209 211 211 212 213 214 215 216 217 217 217 217 219 221 221 222 227 228 226 225 224 220 215 213 215 217 220 221 221 219 214 209
202 203 203 201 199 199 200 205 209 210 210 212 214 214 215 216 217 218 218 218 218 217 220 224 225 224 227 229 227 226 224 222 217 215 218 219 220 223 224 224 221 214
201 202 202 201 200 201 204 208 211 213 212 212 214 217 218 218 219 220 220 219 218 218 221 227 230 228 226 227 228 226 223 220 217 216 219 221 221 223 225 228 227 222
199 199 200 201 201 202 207 210 213 214 213 211 213 216 218 219 220 221 221 220 220 221 223 228 232 231 229 227 226 224 220 216 214 213 218 224 225 225 224 226 227 225
197 198 199 201 203 205 209 212 213 214 213 211 213 217 219 221 222 223 223 222 222 223 224 227 231 233 232 228 225 223 219 214 210 209 214 220 224 225 225 226 226 225
197 199 201 202 205 208 211 213 214 215 215 213 216 219 222 224 224 225 226 225 226 226 226 227 230 233 234 230 225 223 219 212 208 210 213 216 220 223 225 227 228 227
200 202 202 205 207 209 212 214 214 216 216 216 219 222 224 226 226 228 229 229 229 229 228 229 230 231 234 233 228 224 220 212 208 214 218 217 219 222 224 225 225 225
Height
792 794 795 797 799 801 802 804 805 807 809 811 812 814 815 817 819 821 822 824 825 826 828 830 831 833 835 836 837 838 839 840 841 842 843 844 845 846 847 848 849 850
788 790 792 794 796 797 799 800 802 804 806 807 809 811 813 814 816 817 819 821 822 824 825 827 828 830 832 834 835 836 837 838 839 840 841 842 843 844 845 846 847 848
784 786 788 790 791 793 795 797 799 801 803 804 806 808 809 811 813 814 816 818 819 821 822 824 826 827 829 830 832 833 834 836 837 838 840 841 841 842 843 844 845 846
779 781 784 786 788 790 792 795 796 797 799 801 802 804 806 808 809 811 813 814 816 818 820 821 823 824 826 827 829 831 832 833 835 836 838 839 840 840 841 842 843 844
774 776 779 782 784 787 789 790 792 793 795 797 798 800 802 804 806 807 809 811 813 815 816 818 819 821 822 824 826 828 829 831 832 834 835 836 837 838 839 840 840 841
769 771 774 777 780 783 785 786 788 789 791 793 794 797 798 799 801 803 806 807 809 811 813 815 816 817 819 821 822 824 826 828 829 831 833 834 835 836 837 837 837 838
763 766 769 772 775 778 780 782 784 786 787 789 791 793 794 796 797 799 801 804 805 808 809 811 813 814 816 817 819 820 822 824 826 828 830 831 832 833 834 834 834 835
758 761 764 767 770 773 775 777 780 781 784 786 787 789 790 792 794 795 798 800 802 804 806 808 809 811 812 814 815 817 818 820 822 824 826 828 829 830 831 831 831 831
753 756 760 762 765 768 770 773 775 777 779 781 783 785 786 788 790 792 794 796 798 800 802 804 806 807 809 811 812 813 815 816 818 820 823 824 825 826 827 828 827 828
748 751 755 757 760 763 765 768 770 773 775 776 779 781 783 784 786 788 790 792 794 796 798 800 802 804 806 807 808 810 811 812 814 816 818 820 821 822 823 824 824 825
743 746 750 752 755 757 760 763 766 768 770 772 774 776 778 780 782 784 786 788 789 792 794 796 797 800 802 803 805 806 807 809 811 812 814 815 816 817 818 820 821 822
737 740 744 747 749 752 755 758 761 763 765 766 768 770 773 775 777 779 781 783 785 787 789 791 793 795 797 799 801 802 804 806 807 809 810 811 812 813 814 816 817 818
730 734 737 740 743 746 750 753 755 757 759 761 763 765 767 770 772 774 775 778 780 783 785 787 789 791 793 795 797 799 800 802 803 805 806 807 807 808 810 811 813 814
725 729 732 735 738 741 745 748 750 752 754 756 758 760 762 764 766 769 771 773 776 778 780 782 784 786 788 790 792 794 796 797 799 800 801 802 803 804 806 807 808 810
720 724 727 730 734 737 740 742 745 747 750 752 754 755 758 760 762 765 767 769 771 773 775 777 779 781 782 784 787 789 791 793 795 796 797 798 799 800 801 802 804 805
715 719 722 725 729 731 734 737 740 743 745 748 750 751 754 755 758 760 762 764 766 768 770 772 773 775 776 778 781 784 786 788 790 791 793 794 795 796 797 798 799 801
711 714 717 720 723 726 729 732 735 738 741 743 745 747 749 751 754 756 757 759 761 762 764 766 767 769 770 773 775 778 781 784 785 787 788 789 790 791 792 793 794 796
706 709 713 716 719 721 725 728 731 734 736 739 741 743 745 747 749 751 752 755 756 757 759 760 761 763 764 767 769 772 776 779 781 782 783 784 785 786 787 788 789 791
703 706 708 711 714 717 721 724 727 729 731 734 736 739 741 742 744 746 747 749 751 752 753 755 756 757 759 761 764 767 770 773 776 777 778 779 780 781 782 783 784 786
701 703 704 707 710 714 717 720 722 725 727 730 732 734 736 737 739 741 742 743 745 747 749 750 751 752 753 755 758 761 764 768 771 773 773 774 775 776 778 778 779 780
697 699 702 705 708 712 714 716 719 720 723 726 728 730 731 733 734 736 737 738 740 742 744 745 746 747 748 750 753 756 760 763 766 768 769 769 770 772 773 774 775 775
692 695 699 702 706 709 711 713 715 716 719 722 724 726 727 729 730 731 732 734 736 738 739 739 741 743 743 745 747 751 755 758 761 763 765 765 766 767 768 769 770 771
687 691 695 699 702 704 706 708 710 712 715 717 719 721 723 724 725 726 728 730 731 732 733 734 736 739 739 739 742 745 749 752 754 757 759 760 761 761 762 763 764 765
685 688 691 695 697 699 701 703 705 707 710 712 715 716 718 719 721 723 724 725 726 727 728 730 732 733 734 735 736 739 742 745 748 750 751 752 754 755 756 757 758 759
681 684 687 690 692 694 697 699 702 705 708 710 712 713 715 717 718 719 720 720 721 722 723 725 727 728 730 731 732 734 737 741 743 745 745 746 747 749 750 752 754 755
678 680 682 685 688 690 694 697 700 702 705 707 708 710 712 714 715 715 716 716 717 718 719 721 722 723 724 726 727 729 732 735 738 739 739 741 742 744 745 747 749 751